Kremmling, CO

11:46 PM MST on January 18, 2017 (GMT -0700)
Kremmling

Weather History for K20V - April, 2013

Change the Weather History Date:

Thursday, April 4, 2013

  Actual Average Record
Temperature  
Mean Temperature 45 °F -  
Max Temperature 60 °F - 64 °F (2004)
Min Temperature 30 °F - 8 °F (2008)
Degree Days  
Heating Degree Days 20    
Month to date heating degree days  
Cooling Degree Days 0    
Month to date cooling degree days  
Moisture  
Dew Point 27 °F    
Average Humidity 61    
Maximum Humidity 100    
Minimum Humidity 17    
Precipitation  
Precipitation 0.01 in - 0.10 in (2009)
Sea Level Pressure  
Sea Level Pressure 30.23 in    
Wind  
Wind Speed 3 mph (SSW)    
Max Wind Speed 14 mph    
Max Gust Speed 25 mph    
Visibility 10 miles    
Events Rain    
T = Trace of Precipitation, MM = Missing Value Source: NWS Daily Summary

Daily Weather History Graph

Daily Weather History Graph

Search for Another Location

Airport or City:

Trip Planner

Search our weather history database for the weather conditions in past years. The results will help you decide how hot, cold, wet, or windy it might be!

Date:

Astronomy

Apr. 04, 2013 Rise Set
Actual Time 6:44 AM MDT 7:33 PM MDT
Civil Twilight 6:16 AM MDT 8:00 PM MDT
Nautical Twilight 5:44 AM MDT 8:33 PM MDT
Astronomical Twilight 5:10 AM MDT 9:07 PM MDT
Moon 3:12 AM MDT (4/4) 1:54 PM MDT (4/4)
Length of Visible Light 13h 44m
Length of Day
12h 49m
Waning Crescent, 33% of the Moon is Illuminated
Apr 4
Waning Crescent
Apr 10
New
Apr 18
First Quarter
Apr 25
Full
May 2
Last Quarter

Hourly Weather History & Observations

Time (MDT) Temp. Windchill Dew Point Humidity Pressure Visibility Wind Dir Wind Speed Gust Speed Precip Events Conditions
12:15 AM 33.8 °F - 28.4 °F 81% 30.27 in 10.0 mi Calm Calm - N/A   Mostly Cloudy
12:34 AM 33.8 °F - 28.4 °F 81% 30.28 in 10.0 mi Calm Calm - N/A   Overcast
12:55 AM 37.4 °F 30.3 °F 30.2 °F 75% 30.29 in 10.0 mi North 10.4 mph 16.1 mph N/A Rain Light Rain
1:15 AM 35.6 °F 30.7 °F 32.0 °F 87% 30.30 in 10.0 mi NW 5.8 mph - N/A Rain Light Rain
1:35 AM 35.6 °F - 32.0 °F 87% 30.29 in 7.0 mi Calm Calm - 0.01 in Rain Rain
1:55 AM 35.6 °F - 32.0 °F 87% 30.27 in 10.0 mi Calm Calm - 0.01 in Rain Light Rain
2:15 AM 33.8 °F 27.0 °F 32.0 °F 93% 30.28 in 10.0 mi South 8.1 mph - N/A   Overcast
2:35 AM 33.8 °F 27.7 °F 32.0 °F 93% 30.28 in 10.0 mi South 6.9 mph - N/A   Overcast
2:55 AM 33.8 °F 30.8 °F 32.0 °F 93% 30.28 in 10.0 mi South 3.5 mph - N/A   Mostly Cloudy
3:15 AM 33.8 °F 30.8 °F 32.0 °F 93% 30.27 in 10.0 mi SSE 3.5 mph - N/A   Scattered Clouds
3:35 AM 33.8 °F - 32.0 °F 93% 30.28 in 10.0 mi Calm Calm - N/A   Scattered Clouds
3:55 AM 32.0 °F 28.7 °F 32.0 °F 100% 30.28 in 10.0 mi ESE 3.5 mph - N/A   Mostly Cloudy
4:15 AM 32.0 °F - 30.2 °F 93% 30.28 in 10.0 mi Calm Calm - N/A   Mostly Cloudy
4:35 AM 32.0 °F - 30.2 °F 93% 30.28 in 10.0 mi Calm Calm - N/A   Mostly Cloudy
4:55 AM 32.0 °F - 30.2 °F 93% 30.28 in 10.0 mi Calm Calm - N/A   Scattered Clouds
5:15 AM 32.0 °F - 28.4 °F 87% 30.28 in 10.0 mi Calm Calm - N/A   Scattered Clouds
5:35 AM 30.2 °F - 28.4 °F 93% 30.29 in 7.0 mi Calm Calm - N/A   Scattered Clouds
5:55 AM 30.2 °F - 28.4 °F 93% 30.29 in 10.0 mi Calm Calm - N/A   Mostly Cloudy
6:15 AM 32.0 °F - 28.4 °F 87% 30.29 in 10.0 mi Calm Calm - N/A   Overcast
6:35 AM 32.0 °F - 30.2 °F 93% 30.30 in 10.0 mi Calm Calm - N/A   Overcast
6:55 AM 32.0 °F - 28.4 °F 87% 30.30 in 10.0 mi Calm Calm - N/A   Overcast
7:14 AM 32.0 °F - 28.4 °F 87% 30.31 in 10.0 mi Calm Calm - N/A   Overcast
7:35 AM 32.0 °F 28.7 °F 28.4 °F 87% 30.31 in 10.0 mi West 3.5 mph - N/A   Overcast
7:55 AM 32.0 °F - 28.4 °F 87% 30.31 in 10.0 mi Calm Calm - N/A   Overcast
8:15 AM 32.0 °F - 28.4 °F 87% 30.32 in 10.0 mi Calm Calm - N/A   Overcast
8:35 AM 33.8 °F - 32.0 °F 93% 30.32 in 10.0 mi Calm Calm - N/A   Overcast
8:54 AM 33.8 °F - 30.2 °F 87% 30.32 in 10.0 mi Calm Calm - N/A   Overcast
9:15 AM 33.8 °F - 30.2 °F 87% 30.32 in 10.0 mi Calm Calm - N/A   Overcast
9:35 AM 35.6 °F 32.8 °F 32.0 °F 87% 30.32 in 10.0 mi SE 3.5 mph - N/A   Overcast
9:55 AM 35.6 °F 32.8 °F 32.0 °F 87% 30.31 in 10.0 mi South 3.5 mph - N/A   Overcast
10:35 AM 37.4 °F 33.8 °F 32.0 °F 81% 30.31 in 10.0 mi East 4.6 mph - N/A   Overcast
10:55 AM 41.0 °F 39.0 °F 32.0 °F 70% 30.31 in 10.0 mi SE 3.5 mph - N/A   Mostly Cloudy
11:15 AM 41.0 °F 39.0 °F 30.2 °F 65% 30.30 in 10.0 mi ENE 3.5 mph - N/A   Scattered Clouds
11:35 AM 42.8 °F - 32.0 °F 66% 30.29 in 10.0 mi Calm Calm - N/A   Clear
11:55 AM 46.4 °F - 32.0 °F 57% 30.28 in 10.0 mi Calm Calm - N/A   Clear
12:15 PM 48.2 °F - 32.0 °F 54% 30.27 in 10.0 mi ESE 3.5 mph - N/A   Clear
12:35 PM 50.0 °F - 30.2 °F 47% 30.26 in 10.0 mi East 3.5 mph - N/A   Clear
12:55 PM 51.8 °F - 32.0 °F 47% 30.24 in 10.0 mi NE 3.5 mph - N/A   Clear
1:14 PM 53.6 °F - 32.0 °F 44% 30.23 in 10.0 mi Calm Calm - N/A   Clear
1:35 PM 53.6 °F - 28.4 °F 38% 30.22 in 10.0 mi Calm Calm - N/A   Clear
1:55 PM 53.6 °F - 28.4 °F 38% 30.21 in 10.0 mi NE 3.5 mph - N/A   Clear
2:15 PM 55.4 °F - 21.2 °F 26% 30.20 in 10.0 mi WNW 5.8 mph - N/A   Clear
2:35 PM 55.4 °F - 21.2 °F 26% 30.19 in 10.0 mi WSW 6.9 mph - N/A   Clear
2:55 PM 59.0 °F - 21.2 °F 23% 30.18 in 10.0 mi Calm Calm - N/A   Scattered Clouds
3:15 PM 60.8 °F - 21.2 °F 22% 30.17 in 10.0 mi WSW 5.8 mph 25.3 mph N/A   Clear
3:34 PM 59.0 °F - 19.4 °F 22% 30.16 in 10.0 mi SW 9.2 mph - N/A   Clear
3:55 PM 60.8 °F - 21.2 °F 22% 30.15 in 10.0 mi WSW 9.2 mph - N/A   Clear
4:15 PM 59.0 °F - 19.4 °F 22% 30.15 in 10.0 mi WSW 9.2 mph 18.4 mph N/A   Clear
4:34 PM 59.0 °F - 19.4 °F 22% 30.15 in 10.0 mi WSW 12.7 mph 18.4 mph N/A   Clear
4:55 PM 59.0 °F - 17.6 °F 20% 30.14 in 10.0 mi WSW 9.2 mph 17.3 mph N/A   Clear
5:15 PM 60.8 °F - 17.6 °F 19% 30.14 in 10.0 mi SSW 11.5 mph - N/A   Clear
5:35 PM 59.0 °F - 15.8 °F 19% 30.14 in 10.0 mi SW 9.2 mph - N/A   Clear
5:55 PM 59.0 °F - 14.0 °F 17% 30.14 in 10.0 mi SW 9.2 mph - N/A   Clear
6:15 PM 59.0 °F - 15.8 °F 19% 30.13 in 10.0 mi SW 13.8 mph - N/A   Clear
6:35 PM 55.4 °F - 12.2 °F 18% 30.14 in 10.0 mi SW 11.5 mph - N/A   Clear
6:55 PM 53.6 °F - 14.0 °F 21% 30.14 in 10.0 mi SW 9.2 mph - N/A   Clear
7:15 PM 53.6 °F - 14.0 °F 21% 30.14 in 10.0 mi SW 8.1 mph - N/A   Clear
7:35 PM 53.6 °F - 17.6 °F 24% 30.14 in 10.0 mi SW 5.8 mph - N/A   Clear
7:55 PM 51.8 °F - 19.4 °F 28% 30.14 in 10.0 mi Calm Calm - N/A   Clear
8:15 PM 50.0 °F - 17.6 °F 28% 30.14 in 10.0 mi Calm Calm - N/A   Clear
8:35 PM 50.0 °F - 21.2 °F 32% 30.14 in 10.0 mi Calm Calm - N/A   Clear
8:55 PM 46.4 °F - 28.4 °F 50% 30.14 in 10.0 mi Calm Calm - N/A   Clear
9:15 PM 46.4 °F - 28.4 °F 50% 30.15 in 10.0 mi Calm Calm - N/A   Clear
9:35 PM 44.6 °F - 28.4 °F 53% 30.15 in 10.0 mi Calm Calm - N/A   Clear
9:55 PM 44.6 °F 43.1 °F 28.4 °F 53% 30.16 in 10.0 mi NNE 3.5 mph - N/A   Clear
10:15 PM 41.0 °F 37.1 °F 30.2 °F 65% 30.16 in 10.0 mi ESE 5.8 mph - N/A   Clear
10:34 PM 41.0 °F - 30.2 °F 65% 30.16 in 10.0 mi Calm Calm - N/A   Clear
10:55 PM 41.0 °F - 28.4 °F 61% 30.15 in 10.0 mi Calm Calm - N/A   Scattered Clouds
11:15 PM 41.0 °F 36.4 °F 28.4 °F 61% 30.14 in 10.0 mi SE 6.9 mph - N/A   Scattered Clouds
11:34 PM 39.2 °F - 28.4 °F 65% 30.14 in 10.0 mi Calm Calm - N/A   Scattered Clouds
11:55 PM 41.0 °F - 26.6 °F 57% 30.14 in 10.0 mi Calm Calm - N/A   Clear